Time,TemperatureF,DewpointF,PressureIn,WindDirection,WindDirectionDegrees,WindSpeedMPH,WindSpeedGustMPH,Humidity,HourlyPrecipIn,Conditions,Clouds,dailyrainin,SoftwareType,DateUTC
2013-08-07 00:02:00,73.6,73.4,30.00,South,191,0.0,0.0,98,0.00,,,0.00,WUHU216WMR968SP,2013-08-07 04:02:00,
2013-08-07 00:07:00,73.4,73.4,30.00,South,191,0.0,0.0,98,0.00,,,0.00,WUHU216WMR968SP,2013-08-07 04:07:00,
2013-08-07 00:12:00,73.4,73.4,30.00,South,191,0.0,0.0,98,0.00,,,0.00,WUHU216WMR968SP,2013-08-07 04:12:00,
2013-08-07 00:17:00,73.4,73.4,30.00,South,191,0.0,0.0,98,0.00,,,0.00,WUHU216WMR968SP,2013-08-07 04:17:00,
2013-08-07 00:22:00,73.4,73.4,30.00,South,191,0.0,0.0,98,0.00,,,0.00,WUHU216WMR968SP,2013-08-07 04:22:00,
2013-08-07 00:27:00,73.2,73.4,30.00,South,183,0.0,0.0,98,0.00,,,0.00,WUHU216WMR968SP,2013-08-07 04:27:00,
2013-08-07 00:32:00,73.4,73.4,30.00,South,183,0.0,0.0,98,0.00,,,0.00,WUHU216WMR968SP,2013-08-07 04:32:00,
2013-08-07 00:37:00,73.2,73.4,30.00,South,183,0.0,0.0,98,0.00,,,0.00,WUHU216WMR968SP,2013-08-07 04:37:00,
2013-08-07 00:42:00,73.2,73.4,30.00,South,183,0.0,0.0,98,0.00,,,0.00,WUHU216WMR968SP,2013-08-07 04:42:00,
2013-08-07 00:47:00,73.2,73.4,30.00,South,183,0.0,0.0,98,0.00,,,0.00,WUHU216WMR968SP,2013-08-07 04:47:00,
2013-08-07 00:52:00,73.2,73.4,30.00,South,183,0.0,0.0,98,0.00,,,0.00,WUHU216WMR968SP,2013-08-07 04:52:00,
2013-08-07 00:57:00,73.2,73.4,30.00,South,183,0.0,0.0,98,0.00,,,0.00,WUHU216WMR968SP,2013-08-07 04:57:00,
2013-08-07 01:02:00,73.0,73.4,30.00,South,183,0.0,0.0,98,0.00,,,0.00,WUHU216WMR968SP,2013-08-07 05:02:00,
2013-08-07 01:07:00,73.0,73.4,29.97,South,183,0.0,0.0,98,0.00,,,0.00,WUHU216WMR968SP,2013-08-07 05:07:00,
2013-08-07 01:12:00,73.0,73.4,29.97,South,183,0.0,0.0,98,0.00,,,0.00,WUHU216WMR968SP,2013-08-07 05:12:00,
2013-08-07 01:17:00,72.9,73.4,29.97,South,174,0.0,0.0,98,0.00,,,0.00,WUHU216WMR968SP,2013-08-07 05:17:00,
2013-08-07 01:22:00,72.9,73.4,30.00,South,174,0.0,0.0,98,0.00,,,0.00,WUHU216WMR968SP,2013-08-07 05:22:00,
2013-08-07 01:27:00,72.9,73.4,30.00,South,174,0.0,0.0,98,0.00,,,0.00,WUHU216WMR968SP,2013-08-07 05:27:00,
2013-08-07 01:32:00,72.9,73.4,30.00,South,174,0.0,0.0,98,0.00,,,0.00,WUHU216WMR968SP,2013-08-07 05:32:00,
2013-08-07 01:37:00,72.9,73.4,29.97,WSW,253,0.0,0.0,98,0.00,,,0.00,WUHU216WMR968SP,2013-08-07 05:37:00,
2013-08-07 01:42:00,72.9,73.4,29.97,WSW,253,0.0,0.0,98,0.00,,,0.00,WUHU216WMR968SP,2013-08-07 05:42:00,
2013-08-07 01:47:00,72.9,73.4,29.97,WSW,253,0.0,0.0,98,0.00,,,0.00,WUHU216WMR968SP,2013-08-07 05:47:00,
2013-08-07 01:52:00,72.9,73.4,30.00,WSW,253,0.0,0.0,98,0.00,,,0.00,WUHU216WMR968SP,2013-08-07 05:52:00,
2013-08-07 01:57:00,72.9,73.4,30.00,WSW,253,0.0,0.0,98,0.00,,,0.00,WUHU216WMR968SP,2013-08-07 05:57:00,
2013-08-07 02:02:00,72.9,73.4,30.00,SE,133,0.0,0.0,98,0.00,,,0.00,WUHU216WMR968SP,2013-08-07 06:02:00,
2013-08-07 02:07:00,73.0,73.4,29.97,SE,133,0.0,0.0,98,0.00,,,0.00,WUHU216WMR968SP,2013-08-07 06:07:00,
2013-08-07 02:12:00,72.9,73.4,29.97,SE,133,0.0,0.0,98,0.00,,,0.00,WUHU216WMR968SP,2013-08-07 06:12:00,
2013-08-07 02:17:00,72.9,73.4,29.97,SE,133,0.0,0.0,98,0.00,,,0.00,WUHU216WMR968SP,2013-08-07 06:17:00,
2013-08-07 02:23:00,73.0,73.4,29.97,SE,133,0.0,0.0,98,0.00,,,0.00,WUHU216WMR968SP,2013-08-07 06:23:00,
2013-08-07 02:28:00,73.0,73.4,29.97,SE,133,0.0,0.0,98,0.00,,,0.00,WUHU216WMR968SP,2013-08-07 06:28:00,
2013-08-07 02:33:00,73.0,73.4,29.97,SE,133,0.0,0.0,98,0.00,,,0.00,WUHU216WMR968SP,2013-08-07 06:33:00,
2013-08-07 02:38:00,72.9,73.4,30.00,SE,133,0.0,0.0,98,0.00,,,0.00,WUHU216WMR968SP,2013-08-07 06:38:00,
2013-08-07 02:43:00,72.9,73.4,30.00,SE,133,0.0,0.0,98,0.00,,,0.00,WUHU216WMR968SP,2013-08-07 06:43:00,
2013-08-07 02:48:00,72.9,73.4,30.00,SE,133,0.0,0.0,98,0.00,,,0.00,WUHU216WMR968SP,2013-08-07 06:48:00,
2013-08-07 02:53:00,72.7,73.4,30.00,SE,133,0.0,0.0,98,0.00,,,0.00,WUHU216WMR968SP,2013-08-07 06:53:00,
2013-08-07 02:58:00,72.7,73.4,30.00,SE,133,0.0,0.0,98,0.00,,,0.00,WUHU216WMR968SP,2013-08-07 06:58:00,
2013-08-07 03:03:00,72.7,73.4,30.00,SE,133,0.0,0.0,98,0.00,,,0.00,WUHU216WMR968SP,2013-08-07 07:03:00,
2013-08-07 03:08:00,72.7,73.4,30.00,SE,133,0.0,0.0,98,0.00,,,0.00,WUHU216WMR968SP,2013-08-07 07:08:00,
2013-08-07 03:13:00,72.5,73.4,30.00,SE,133,0.0,0.0,98,0.00,,,0.00,WUHU216WMR968SP,2013-08-07 07:13:00,
2013-08-07 03:18:00,72.5,73.4,30.00,SE,133,0.0,0.0,98,0.00,,,0.00,WUHU216WMR968SP,2013-08-07 07:18:00,
2013-08-07 03:23:00,72.5,73.4,30.00,SE,133,0.0,0.0,98,0.00,,,0.00,WUHU216WMR968SP,2013-08-07 07:23:00,
2013-08-07 03:28:00,72.5,73.4,30.00,SE,133,0.0,0.0,98,0.00,,,0.00,WUHU216WMR968SP,2013-08-07 07:28:00,
2013-08-07 03:33:00,72.5,73.4,30.00,SE,133,0.0,0.0,98,0.00,,,0.00,WUHU216WMR968SP,2013-08-07 07:33:00,
2013-08-07 03:38:00,72.3,71.6,30.00,SE,133,0.0,0.0,98,0.00,,,0.00,WUHU216WMR968SP,2013-08-07 07:38:00,
2013-08-07 03:43:00,72.3,71.6,30.00,SE,133,0.0,0.0,98,0.00,,,0.00,WUHU216WMR968SP,2013-08-07 07:43:00,
2013-08-07 03:48:00,72.5,73.4,30.00,SE,133,0.0,0.0,98,0.00,,,0.00,WUHU216WMR968SP,2013-08-07 07:48:00,
2013-08-07 03:53:00,72.3,71.6,30.00,SE,133,0.0,0.0,98,0.00,,,0.00,WUHU216WMR968SP,2013-08-07 07:53:00,
2013-08-07 03:58:00,72.3,71.6,30.00,SE,133,0.0,0.0,98,0.00,,,0.00,WUHU216WMR968SP,2013-08-07 07:58:00,
2013-08-07 04:03:00,72.3,71.6,30.00,SE,133,0.0,0.0,98,0.00,,,0.00,WUHU216WMR968SP,2013-08-07 08:03:00,
2013-08-07 04:08:00,72.1,71.6,30.00,SE,133,0.0,0.0,98,0.00,,,0.00,WUHU216WMR968SP,2013-08-07 08:08:00,
2013-08-07 04:13:00,72.1,71.6,30.00,SE,133,0.0,0.0,98,0.00,,,0.00,WUHU216WMR968SP,2013-08-07 08:13:00,
2013-08-07 04:18:00,72.3,71.6,30.00,SE,133,0.0,0.0,98,0.00,,,0.00,WUHU216WMR968SP,2013-08-07 08:18:00,
2013-08-07 04:23:00,72.3,71.6,29.97,SE,133,0.0,0.0,98,0.00,,,0.00,WUHU216WMR968SP,2013-08-07 08:23:00,
2013-08-07 04:28:00,72.1,71.6,29.97,SE,133,0.0,0.0,98,0.00,,,0.00,WUHU216WMR968SP,2013-08-07 08:28:00,
2013-08-07 04:33:00,72.1,71.6,29.97,SE,133,0.0,0.0,98,0.00,,,0.00,WUHU216WMR968SP,2013-08-07 08:33:00,
2013-08-07 04:38:00,72.1,71.6,30.00,SE,133,0.0,0.0,98,0.00,,,0.00,WUHU216WMR968SP,2013-08-07 08:38:00,
2013-08-07 04:43:00,72.1,71.6,30.00,SE,133,0.0,0.0,98,0.00,,,0.00,WUHU216WMR968SP,2013-08-07 08:43:00,
2013-08-07 04:48:00,72.1,71.6,30.00,SE,133,0.0,0.0,98,0.00,,,0.00,WUHU216WMR968SP,2013-08-07 08:48:00,
2013-08-07 04:53:00,72.1,71.6,29.97,SE,133,0.0,0.0,98,0.00,,,0.00,WUHU216WMR968SP,2013-08-07 08:53:00,
2013-08-07 04:59:00,72.1,71.6,29.97,SE,133,0.0,0.0,98,0.00,,,0.00,WUHU216WMR968SP,2013-08-07 08:59:00,
2013-08-07 05:04:00,72.1,71.6,29.97,SE,133,0.0,0.0,98,0.00,,,0.00,WUHU216WMR968SP,2013-08-07 09:04:00,
2013-08-07 05:09:00,72.1,71.6,29.97,SE,133,0.0,0.0,98,0.00,,,0.00,WUHU216WMR968SP,2013-08-07 09:09:00,
2013-08-07 05:14:00,72.1,71.6,29.97,SE,133,0.0,0.0,98,0.00,,,0.00,WUHU216WMR968SP,2013-08-07 09:14:00,
2013-08-07 05:19:00,72.1,71.6,29.97,SE,133,0.0,0.0,98,0.00,,,0.00,WUHU216WMR968SP,2013-08-07 09:19:00,
2013-08-07 05:24:00,72.1,71.6,29.97,SE,133,0.0,0.0,98,0.00,,,0.00,WUHU216WMR968SP,2013-08-07 09:24:00,
2013-08-07 05:29:00,72.0,71.6,29.97,SE,133,0.0,0.0,98,0.00,,,0.00,WUHU216WMR968SP,2013-08-07 09:29:00,
2013-08-07 05:34:00,72.0,71.6,29.97,SE,133,0.0,0.0,98,0.00,,,0.00,WUHU216WMR968SP,2013-08-07 09:34:00,
2013-08-07 05:39:00,72.0,71.6,29.97,SE,133,0.0,0.0,98,0.00,,,0.00,WUHU216WMR968SP,2013-08-07 09:39:00,
2013-08-07 05:44:00,72.0,71.6,29.97,SE,133,0.0,0.0,98,0.00,,,0.00,WUHU216WMR968SP,2013-08-07 09:44:00,
2013-08-07 05:49:00,72.0,71.6,29.97,SE,133,0.0,0.0,98,0.00,,,0.00,WUHU216WMR968SP,2013-08-07 09:49:00,
2013-08-07 05:54:00,72.0,71.6,29.97,SE,133,0.0,0.0,98,0.00,,,0.00,WUHU216WMR968SP,2013-08-07 09:54:00,
2013-08-07 05:59:00,71.8,71.6,29.97,SE,133,0.0,0.0,98,0.00,,,0.00,WUHU216WMR968SP,2013-08-07 09:59:00,
2013-08-07 06:04:00,71.8,71.6,29.97,SE,133,0.0,0.0,98,0.00,,,0.00,WUHU216WMR968SP,2013-08-07 10:04:00,
2013-08-07 06:09:00,71.8,71.6,29.97,SE,133,0.0,0.0,98,0.00,,,0.00,WUHU216WMR968SP,2013-08-07 10:09:00,
2013-08-07 06:14:00,71.8,71.6,29.97,ESE,115,0.0,0.0,98,0.00,,,0.00,WUHU216WMR968SP,2013-08-07 10:14:00,
2013-08-07 06:19:00,71.8,71.6,29.97,ESE,115,0.0,0.0,98,0.00,,,0.00,WUHU216WMR968SP,2013-08-07 10:19:00,
2013-08-07 06:24:00,71.8,71.6,30.00,ESE,115,0.0,0.0,98,0.00,,,0.00,WUHU216WMR968SP,2013-08-07 10:24:00,
2013-08-07 06:29:00,71.8,71.6,30.00,ESE,115,0.0,0.0,98,0.00,,,0.00,WUHU216WMR968SP,2013-08-07 10:29:00,
2013-08-07 06:34:00,71.8,71.6,30.00,ESE,115,0.0,0.0,98,0.00,,,0.00,WUHU216WMR968SP,2013-08-07 10:34:00,
2013-08-07 06:39:00,71.8,71.6,30.00,ESE,115,0.0,0.0,98,0.00,,,0.00,WUHU216WMR968SP,2013-08-07 10:39:00,
2013-08-07 06:44:00,72.0,71.6,30.00,ESE,115,0.0,0.0,98,0.00,,,0.00,WUHU216WMR968SP,2013-08-07 10:44:00,
2013-08-07 06:49:00,72.0,71.6,30.00,ESE,115,0.0,0.0,98,0.00,,,0.00,WUHU216WMR968SP,2013-08-07 10:49:00,
2013-08-07 06:54:00,72.0,71.6,30.00,ESE,115,0.0,0.0,98,0.00,,,0.00,WUHU216WMR968SP,2013-08-07 10:54:00,
2013-08-07 06:59:00,72.1,71.6,30.00,ESE,115,0.0,0.0,98,0.00,,,0.00,WUHU216WMR968SP,2013-08-07 10:59:00,
2013-08-07 07:04:00,72.1,71.6,30.00,ESE,115,0.0,0.0,98,0.00,,,0.00,WUHU216WMR968SP,2013-08-07 11:04:00,
2013-08-07 07:09:00,72.3,71.6,30.00,ESE,115,0.0,0.0,98,0.00,,,0.00,WUHU216WMR968SP,2013-08-07 11:09:00,
2013-08-07 07:14:00,72.3,71.6,30.00,ESE,115,0.0,0.0,98,0.00,,,0.00,WUHU216WMR968SP,2013-08-07 11:14:00,
2013-08-07 07:19:00,72.3,71.6,30.00,ESE,115,0.0,0.0,98,0.00,,,0.00,WUHU216WMR968SP,2013-08-07 11:19:00,
2013-08-07 07:24:00,72.5,73.4,30.00,ESE,115,0.0,0.0,98,0.00,,,0.00,WUHU216WMR968SP,2013-08-07 11:24:00,
2013-08-07 07:29:00,72.5,73.4,30.00,ESE,115,0.0,0.0,98,0.00,,,0.00,WUHU216WMR968SP,2013-08-07 11:29:00,
2013-08-07 07:34:00,72.5,73.4,30.00,ESE,115,0.0,0.0,98,0.00,,,0.00,WUHU216WMR968SP,2013-08-07 11:34:00,
2013-08-07 07:39:00,72.5,73.4,30.00,ESE,115,0.0,0.0,98,0.00,,,0.00,WUHU216WMR968SP,2013-08-07 11:39:00,
2013-08-07 07:44:00,72.5,73.4,30.00,ESE,115,0.0,0.0,98,0.00,,,0.00,WUHU216WMR968SP,2013-08-07 11:44:00,
2013-08-07 07:50:00,72.5,73.4,30.00,ESE,115,0.0,0.0,98,0.00,,,0.00,WUHU216WMR968SP,2013-08-07 11:50:00,
2013-08-07 07:55:00,72.7,73.4,30.00,ESE,115,0.0,0.0,98,0.00,,,0.00,WUHU216WMR968SP,2013-08-07 11:55:00,
2013-08-07 08:00:00,72.7,73.4,30.00,ESE,115,0.0,0.0,98,0.00,,,0.00,WUHU216WMR968SP,2013-08-07 12:00:00,
2013-08-07 08:05:00,72.9,73.4,30.00,ESE,115,0.0,0.0,98,0.00,,,0.00,WUHU216WMR968SP,2013-08-07 12:05:00,
2013-08-07 08:10:00,73.0,73.4,30.00,ESE,115,0.0,0.0,98,0.00,,,0.00,WUHU216WMR968SP,2013-08-07 12:10:00,
2013-08-07 08:15:00,73.2,73.4,30.00,ESE,115,0.0,0.0,98,0.00,,,0.00,WUHU216WMR968SP,2013-08-07 12:15:00,
2013-08-07 08:20:00,73.4,73.4,30.00,ESE,115,0.0,0.0,98,0.00,,,0.00,WUHU216WMR968SP,2013-08-07 12:20:00,
2013-08-07 08:25:00,73.9,73.4,30.00,ESE,115,0.0,0.0,98,0.00,,,0.00,WUHU216WMR968SP,2013-08-07 12:25:00,
2013-08-07 08:30:00,74.7,75.2,30.00,ESE,115,0.0,0.0,98,0.00,,,0.00,WUHU216WMR968SP,2013-08-07 12:30:00,
2013-08-07 08:35:00,75.0,75.2,30.00,ESE,115,0.0,0.0,98,0.00,,,0.00,WUHU216WMR968SP,2013-08-07 12:35:00,
2013-08-07 08:40:00,75.2,75.2,30.00,ESE,115,0.0,0.0,98,0.00,,,0.00,WUHU216WMR968SP,2013-08-07 12:40:00,
2013-08-07 08:45:00,75.6,73.4,30.00,ESE,115,0.0,0.0,97,0.00,,,0.00,WUHU216WMR968SP,2013-08-07 12:45:00,
2013-08-07 08:50:00,75.6,73.4,30.00,ESE,115,0.0,0.0,97,0.00,,,0.00,WUHU216WMR968SP,2013-08-07 12:50:00,
2013-08-07 08:55:00,75.6,73.4,30.00,ESE,115,0.0,0.0,96,0.00,,,0.00,WUHU216WMR968SP,2013-08-07 12:55:00,
2013-08-07 09:00:00,75.4,73.4,30.00,ESE,115,0.0,0.0,96,0.00,,,0.00,WUHU216WMR968SP,2013-08-07 13:00:00,
2013-08-07 09:05:00,75.4,73.4,30.00,ESE,115,0.0,0.0,96,0.00,,,0.00,WUHU216WMR968SP,2013-08-07 13:05:00,
2013-08-07 09:10:00,75.4,73.4,30.03,ESE,115,0.0,0.0,95,0.00,,,0.00,WUHU216WMR968SP,2013-08-07 13:10:00,
2013-08-07 09:15:00,75.4,73.4,30.03,ESE,115,0.0,0.0,95,0.00,,,0.00,WUHU216WMR968SP,2013-08-07 13:15:00,
2013-08-07 09:20:00,75.4,73.4,30.03,East,84,0.0,0.0,95,0.00,,,0.00,WUHU216WMR968SP,2013-08-07 13:20:00,
2013-08-07 09:25:00,75.6,73.4,30.03,ENE,61,0.0,0.0,95,0.00,,,0.00,WUHU216WMR968SP,2013-08-07 13:25:00,
2013-08-07 09:30:00,75.7,73.4,30.03,ENE,62,0.0,0.0,95,0.00,,,0.00,WUHU216WMR968SP,2013-08-07 13:30:00,
2013-08-07 09:35:00,75.7,73.4,30.03,ENE,62,0.0,0.0,95,0.00,,,0.00,WUHU216WMR968SP,2013-08-07 13:35:00,
2013-08-07 09:40:00,75.7,73.4,30.03,ENE,62,0.0,0.0,95,0.00,,,0.00,WUHU216WMR968SP,2013-08-07 13:40:00,
2013-08-07 09:45:00,75.7,73.4,30.03,ENE,69,0.0,0.0,95,0.00,,,0.00,WUHU216WMR968SP,2013-08-07 13:45:00,
2013-08-07 09:50:00,75.7,73.4,30.03,ENE,69,0.0,0.0,95,0.00,,,0.00,WUHU216WMR968SP,2013-08-07 13:50:00,
2013-08-07 09:55:00,75.7,73.4,30.03,ENE,69,0.0,0.0,95,0.00,,,0.00,WUHU216WMR968SP,2013-08-07 13:55:00,
2013-08-07 10:00:00,75.6,73.4,30.03,ENE,69,0.0,0.0,94,0.00,,,0.00,WUHU216WMR968SP,2013-08-07 14:00:00,
2013-08-07 10:05:00,75.6,73.4,30.03,ENE,69,0.0,0.0,95,0.00,,,0.00,WUHU216WMR968SP,2013-08-07 14:05:00,
2013-08-07 10:10:00,75.4,73.4,30.03,ENE,74,0.0,0.0,95,0.00,,,0.00,WUHU216WMR968SP,2013-08-07 14:10:00,
2013-08-07 10:15:00,75.4,73.4,30.03,ENE,74,0.0,0.0,95,0.00,,,0.00,WUHU216WMR968SP,2013-08-07 14:15:00,
2013-08-07 10:20:00,75.2,73.4,30.03,ENE,74,0.0,0.0,95,0.00,,,0.00,WUHU216WMR968SP,2013-08-07 14:20:00,
2013-08-07 10:25:00,75.2,73.4,30.03,ENE,74,0.0,0.0,95,0.00,,,0.00,WUHU216WMR968SP,2013-08-07 14:25:00,
2013-08-07 10:31:00,75.2,73.4,30.03,ENE,74,0.0,0.0,95,0.00,,,0.00,WUHU216WMR968SP,2013-08-07 14:31:00,
2013-08-07 10:36:00,75.0,73.4,30.03,ENE,74,0.0,0.0,96,0.00,,,0.00,WUHU216WMR968SP,2013-08-07 14:36:00,
2013-08-07 10:41:00,75.0,73.4,30.03,ENE,74,0.0,0.0,96,0.00,,,0.00,WUHU216WMR968SP,2013-08-07 14:41:00,
2013-08-07 10:46:00,75.0,73.4,30.03,ENE,74,0.0,0.0,97,0.00,,,0.00,WUHU216WMR968SP,2013-08-07 14:46:00,
2013-08-07 10:51:00,75.0,73.4,30.03,ENE,74,0.0,0.0,97,0.00,,,0.00,WUHU216WMR968SP,2013-08-07 14:51:00,
2013-08-07 10:56:00,75.0,73.4,30.03,ENE,74,0.0,0.0,97,0.00,,,0.00,WUHU216WMR968SP,2013-08-07 14:56:00,
2013-08-07 11:01:00,75.2,73.4,30.03,ENE,74,0.0,0.0,97,0.00,,,0.00,WUHU216WMR968SP,2013-08-07 15:01:00,
2013-08-07 11:06:00,75.2,73.4,30.03,ENE,74,0.0,0.0,97,0.00,,,0.00,WUHU216WMR968SP,2013-08-07 15:06:00,
2013-08-07 11:11:00,75.6,73.4,30.03,ENE,74,0.0,0.0,97,0.00,,,0.00,WUHU216WMR968SP,2013-08-07 15:11:00,
2013-08-07 11:16:00,75.7,73.4,30.03,ESE,123,0.0,0.0,97,0.00,,,0.00,WUHU216WMR968SP,2013-08-07 15:16:00,
2013-08-07 11:21:00,76.1,75.2,30.03,SSE,148,0.0,0.0,97,0.00,,,0.00,WUHU216WMR968SP,2013-08-07 15:21:00,
2013-08-07 11:26:00,76.1,75.2,30.03,SSE,147,0.0,0.0,96,0.00,,,0.00,WUHU216WMR968SP,2013-08-07 15:26:00,
2013-08-07 11:31:00,76.1,75.2,30.03,ESE,117,0.0,0.0,96,0.00,,,0.00,WUHU216WMR968SP,2013-08-07 15:31:00,
2013-08-07 11:36:00,76.1,75.2,30.03,ESE,117,0.0,0.0,96,0.00,,,0.00,WUHU216WMR968SP,2013-08-07 15:36:00,
2013-08-07 11:41:00,76.3,75.2,30.03,SE,129,0.0,0.0,95,0.00,,,0.00,WUHU216WMR968SP,2013-08-07 15:41:00,
2013-08-07 11:46:00,76.1,75.2,30.03,South,187,0.0,0.0,95,0.00,,,0.00,WUHU216WMR968SP,2013-08-07 15:46:00,
2013-08-07 11:51:00,76.1,75.2,30.03,South,187,0.0,0.0,95,0.00,,,0.00,WUHU216WMR968SP,2013-08-07 15:51:00,
2013-08-07 11:56:00,75.9,73.4,30.03,South,187,0.0,0.0,95,0.00,,,0.00,WUHU216WMR968SP,2013-08-07 15:56:00,
2013-08-07 12:01:00,76.1,75.2,30.03,South,187,0.0,0.0,95,0.00,,,0.00,WUHU216WMR968SP,2013-08-07 16:01:00,
2013-08-07 12:06:00,76.3,75.2,30.03,South,187,0.0,0.0,96,0.00,,,0.00,WUHU216WMR968SP,2013-08-07 16:06:00,
2013-08-07 12:11:00,76.6,75.2,30.03,South,187,0.0,0.0,96,0.00,,,0.00,WUHU216WMR968SP,2013-08-07 16:11:00,
2013-08-07 12:16:00,77.0,75.2,30.03,South,187,0.0,0.0,95,0.00,,,0.00,WUHU216WMR968SP,2013-08-07 16:16:00,
2013-08-07 12:21:00,77.4,75.2,30.03,South,187,0.0,0.0,95,0.00,,,0.00,WUHU216WMR968SP,2013-08-07 16:21:00,
2013-08-07 12:26:00,77.5,75.2,30.03,South,187,0.0,0.0,95,0.00,,,0.00,WUHU216WMR968SP,2013-08-07 16:26:00,
2013-08-07 12:31:00,77.7,75.2,30.03,South,187,0.0,0.0,95,0.00,,,0.00,WUHU216WMR968SP,2013-08-07 16:31:00,
2013-08-07 12:36:00,77.4,75.2,30.03,South,187,0.0,0.0,95,0.00,,,0.00,WUHU216WMR968SP,2013-08-07 16:36:00,
2013-08-07 12:41:00,77.2,75.2,30.03,South,187,0.0,0.0,94,0.00,,,0.00,WUHU216WMR968SP,2013-08-07 16:41:00,
2013-08-07 12:46:00,77.4,75.2,30.03,South,172,0.0,0.0,94,0.00,,,0.00,WUHU216WMR968SP,2013-08-07 16:46:00,
2013-08-07 12:51:00,77.9,77.0,30.03,SW,233,0.0,0.0,94,0.00,,,0.00,WUHU216WMR968SP,2013-08-07 16:51:00,
2013-08-07 12:56:00,78.1,77.0,30.03,SW,233,0.0,0.0,94,0.00,,,0.00,WUHU216WMR968SP,2013-08-07 16:56:00,
2013-08-07 13:01:00,78.6,77.0,30.03,SW,233,0.0,0.0,93,0.00,,,0.00,WUHU216WMR968SP,2013-08-07 17:01:00,
2013-08-07 13:06:00,79.7,78.8,30.03,ESE,118,0.0,0.0,92,0.00,,,0.00,WUHU216WMR968SP,2013-08-07 17:06:00,
2013-08-07 13:11:00,81.0,77.0,30.03,ESE,110,0.0,0.0,90,0.00,,,0.00,WUHU216WMR968SP,2013-08-07 17:11:00,
2013-08-07 13:16:00,81.0,77.0,30.03,ESE,112,0.0,0.0,89,0.00,,,0.00,WUHU216WMR968SP,2013-08-07 17:16:00,
2013-08-07 13:21:00,80.8,77.0,30.03,ESE,123,0.0,0.0,88,0.00,,,0.00,WUHU216WMR968SP,2013-08-07 17:21:00,
2013-08-07 13:27:00,81.0,77.0,30.03,South,179,0.0,0.0,88,0.00,,,0.00,WUHU216WMR968SP,2013-08-07 17:27:00,
2013-08-07 13:32:00,81.1,77.0,30.03,South,179,0.0,0.0,88,0.00,,,0.00,WUHU216WMR968SP,2013-08-07 17:32:00,
2013-08-07 13:37:00,81.3,75.2,30.03,WNW,284,0.0,0.0,86,0.00,,,0.00,WUHU216WMR968SP,2013-08-07 17:37:00,
2013-08-07 13:42:00,81.7,77.0,30.00,SW,222,0.0,0.0,86,0.00,,,0.00,WUHU216WMR968SP,2013-08-07 17:42:00,
2013-08-07 13:47:00,82.2,77.0,30.00,SW,222,0.0,0.0,86,0.00,,,0.00,WUHU216WMR968SP,2013-08-07 17:47:00,
2013-08-07 13:52:00,82.8,77.0,30.00,ESE,119,0.0,0.0,85,0.00,,,0.00,WUHU216WMR968SP,2013-08-07 17:52:00,
2013-08-07 13:57:00,82.9,77.0,30.00,NE,36,0.0,0.0,83,0.00,,,0.00,WUHU216WMR968SP,2013-08-07 17:57:00,
2013-08-07 14:02:00,82.8,77.0,30.00,NNW,336,0.0,0.0,82,0.00,,,0.00,WUHU216WMR968SP,2013-08-07 18:02:00,
2013-08-07 14:07:00,83.5,77.0,30.00,ESE,109,0.0,0.0,81,0.00,,,0.00,WUHU216WMR968SP,2013-08-07 18:07:00,
2013-08-07 14:12:00,83.3,77.0,30.00,South,177,0.0,0.0,79,0.00,,,0.00,WUHU216WMR968SP,2013-08-07 18:12:00,
2013-08-07 14:17:00,83.7,77.0,30.00,ENE,61,0.0,0.0,78,0.00,,,0.00,WUHU216WMR968SP,2013-08-07 18:17:00,
2013-08-07 14:22:00,83.8,77.0,30.00,ESE,109,0.0,0.0,79,0.00,,,0.00,WUHU216WMR968SP,2013-08-07 18:22:00,
2013-08-07 14:27:00,83.7,77.0,30.00,SW,219,0.0,7.4,78,0.00,,,0.00,WUHU216WMR968SP,2013-08-07 18:27:00,
2013-08-07 14:32:00,83.7,77.0,30.00,West,266,0.0,7.4,77,0.00,,,0.00,WUHU216WMR968SP,2013-08-07 18:32:00,
2013-08-07 14:37:00,84.2,77.0,30.00,WSW,244,0.0,6.0,77,0.00,,,0.00,WUHU216WMR968SP,2013-08-07 18:37:00,
2013-08-07 14:42:00,84.4,75.2,30.00,SW,225,0.0,4.6,76,0.00,,,0.00,WUHU216WMR968SP,2013-08-07 18:42:00,
2013-08-07 14:47:00,83.8,75.2,30.00,NNW,340,0.0,4.6,76,0.00,,,0.00,WUHU216WMR968SP,2013-08-07 18:47:00,
2013-08-07 14:57:00,83.8,77.0,30.00,NNW,340,0.0,4.6,77,0.00,,,0.00,WUHU216WMR968SP,2013-08-07 18:57:00,
2013-08-07 15:04:00,83.5,77.0,30.00,SSE,162,0.0,5.4,78,0.00,,,0.00,WUHU216WMR968SP,2013-08-07 19:04:00,
2013-08-07 15:09:00,83.1,75.2,30.00,SE,140,0.0,4.6,77,0.00,,,0.00,WUHU216WMR968SP,2013-08-07 19:09:00,
2013-08-07 15:14:00,82.8,75.2,30.00,SW,216,0.0,4.6,78,0.00,,,0.00,WUHU216WMR968SP,2013-08-07 19:14:00,
2013-08-07 15:19:00,82.4,75.2,30.00,SSE,147,0.0,5.4,78,0.00,,,0.00,WUHU216WMR968SP,2013-08-07 19:19:00,
2013-08-07 15:25:00,82.2,75.2,29.97,NE,47,0.0,5.4,79,0.00,,,0.00,WUHU216WMR968SP,2013-08-07 19:25:00,
2013-08-07 15:30:00,82.4,75.2,29.97,East,81,0.0,4.6,79,0.00,,,0.00,WUHU216WMR968SP,2013-08-07 19:30:00,
2013-08-07 15:35:00,82.2,75.2,29.97,East,100,0.0,4.6,80,0.00,,,0.00,WUHU216WMR968SP,2013-08-07 19:35:00,
2013-08-07 15:40:00,81.9,77.0,29.97,ENE,78,0.0,4.1,82,0.00,,,0.00,WUHU216WMR968SP,2013-08-07 19:40:00,
2013-08-07 15:45:00,81.5,77.0,29.97,ESE,103,0.0,4.1,82,0.00,,,0.00,WUHU216WMR968SP,2013-08-07 19:45:00,
2013-08-07 15:50:00,81.3,75.2,29.97,ESE,103,0.0,0.0,83,0.00,,,0.00,WUHU216WMR968SP,2013-08-07 19:50:00,
2013-08-07 15:55:00,80.8,75.2,29.97,SE,137,0.0,0.0,84,0.00,,,0.00,WUHU216WMR968SP,2013-08-07 19:55:00,
2013-08-07 16:00:00,80.2,75.2,29.97,SE,137,0.0,0.0,86,0.00,,,0.00,WUHU216WMR968SP,2013-08-07 20:00:00,
2013-08-07 16:05:00,79.9,75.2,29.97,SE,137,0.0,0.0,86,0.00,,,0.00,WUHU216WMR968SP,2013-08-07 20:05:00,
2013-08-07 16:10:00,79.7,77.0,29.97,SE,137,0.0,0.0,87,0.00,,,0.00,WUHU216WMR968SP,2013-08-07 20:10:00,
2013-08-07 16:15:00,79.3,73.4,29.97,SSW,211,0.0,4.6,86,0.00,,,0.00,WUHU216WMR968SP,2013-08-07 20:15:00,
2013-08-07 16:20:00,79.2,73.4,29.97,SSW,211,0.0,4.6,86,0.00,,,0.00,WUHU216WMR968SP,2013-08-07 20:20:00,
2013-08-07 16:25:00,78.8,73.4,29.97,SSW,211,0.0,0.0,86,0.00,,,0.00,WUHU216WMR968SP,2013-08-07 20:25:00,
2013-08-07 16:30:00,78.3,75.2,29.97,SSW,211,0.0,0.0,87,0.00,,,0.00,WUHU216WMR968SP,2013-08-07 20:30:00,
2013-08-07 16:35:00,77.4,73.4,29.97,SSW,211,0.0,0.0,88,0.00,,,0.00,WUHU216WMR968SP,2013-08-07 20:35:00,
2013-08-07 16:40:00,77.2,73.4,29.97,SSW,211,0.0,0.0,89,0.00,,,0.00,WUHU216WMR968SP,2013-08-07 20:40:00,
2013-08-07 16:45:00,77.0,73.4,29.97,SSW,211,0.0,0.0,90,0.00,,,0.00,WUHU216WMR968SP,2013-08-07 20:45:00,
2013-08-07 16:50:00,76.8,73.4,29.97,SSW,211,0.0,0.0,91,0.00,,,0.00,WUHU216WMR968SP,2013-08-07 20:50:00,
2013-08-07 16:55:00,76.8,75.2,29.97,SSW,211,0.0,0.0,93,0.00,,,0.00,WUHU216WMR968SP,2013-08-07 20:55:00,
2013-08-07 17:00:00,76.8,75.2,29.97,SSW,211,0.0,0.0,94,0.00,,,0.00,WUHU216WMR968SP,2013-08-07 21:00:00,
2013-08-07 17:05:00,76.8,75.2,29.97,SSW,211,0.0,0.0,94,0.00,,,0.00,WUHU216WMR968SP,2013-08-07 21:05:00,
2013-08-07 17:10:00,77.0,75.2,29.97,SSW,211,0.0,0.0,95,0.00,,,0.00,WUHU216WMR968SP,2013-08-07 21:10:00,
2013-08-07 17:15:00,77.0,75.2,29.97,SSW,211,0.0,0.0,95,0.00,,,0.00,WUHU216WMR968SP,2013-08-07 21:15:00,
2013-08-07 17:20:00,77.2,75.2,29.97,SSW,211,0.0,0.0,96,0.00,,,0.00,WUHU216WMR968SP,2013-08-07 21:20:00,
2013-08-07 17:26:00,77.2,75.2,29.97,SSW,211,0.0,0.0,96,0.00,,,0.00,WUHU216WMR968SP,2013-08-07 21:26:00,
2013-08-07 17:31:00,77.2,75.2,29.97,SSW,211,0.0,0.0,96,0.00,,,0.00,WUHU216WMR968SP,2013-08-07 21:31:00,
2013-08-07 17:36:00,77.4,75.2,29.97,SSW,211,0.0,0.0,96,0.00,,,0.00,WUHU216WMR968SP,2013-08-07 21:36:00,
2013-08-07 17:41:00,77.2,75.2,29.97,SSW,211,0.0,0.0,96,0.00,,,0.00,WUHU216WMR968SP,2013-08-07 21:41:00,
2013-08-07 17:46:00,77.2,75.2,29.97,WNW,303,0.0,0.0,95,0.00,,,0.00,WUHU216WMR968SP,2013-08-07 21:46:00,
2013-08-07 17:51:00,77.4,75.2,29.97,WNW,303,0.0,0.0,95,0.00,,,0.00,WUHU216WMR968SP,2013-08-07 21:51:00,
2013-08-07 17:56:00,77.5,75.2,29.94,WNW,301,0.0,0.0,95,0.00,,,0.00,WUHU216WMR968SP,2013-08-07 21:56:00,
2013-08-07 18:01:00,77.5,75.2,29.94,WNW,301,0.0,0.0,95,0.00,,,0.00,WUHU216WMR968SP,2013-08-07 22:01:00,
2013-08-07 18:06:00,77.4,75.2,29.94,WNW,301,0.0,0.0,94,0.00,,,0.00,WUHU216WMR968SP,2013-08-07 22:06:00,
2013-08-07 18:11:00,77.4,75.2,29.97,WNW,301,0.0,0.0,94,0.00,,,0.00,WUHU216WMR968SP,2013-08-07 22:11:00,
2013-08-07 18:16:00,77.2,75.2,29.97,WNW,301,0.0,0.0,94,0.00,,,0.00,WUHU216WMR968SP,2013-08-07 22:16:00,
2013-08-07 18:21:00,77.0,75.2,29.97,WNW,301,0.0,0.0,94,0.00,,,0.00,WUHU216WMR968SP,2013-08-07 22:21:00,
2013-08-07 18:26:00,77.0,75.2,29.97,NW,307,0.0,0.0,94,0.00,,,0.00,WUHU216WMR968SP,2013-08-07 22:26:00,
2013-08-07 18:31:00,76.8,75.2,29.97,NW,308,0.0,0.0,95,0.00,,,0.00,WUHU216WMR968SP,2013-08-07 22:31:00,
2013-08-07 18:36:00,77.0,75.2,29.97,NW,308,0.0,0.0,95,0.00,,,0.00,WUHU216WMR968SP,2013-08-07 22:36:00,
2013-08-07 18:41:00,77.0,75.2,29.97,NW,309,0.0,0.0,95,0.00,,,0.00,WUHU216WMR968SP,2013-08-07 22:41:00,
2013-08-07 18:49:00,77.0,75.2,29.97,NNW,339,0.0,0.0,95,0.00,,,0.00,WUHU216WMR968SP,2013-08-07 22:49:00,
2013-08-07 18:54:00,77.0,75.2,29.94,NNW,339,0.0,0.0,95,0.00,,,0.00,WUHU216WMR968SP,2013-08-07 22:54:00,
2013-08-07 18:59:00,77.2,75.2,29.94,NNW,339,0.0,0.0,95,0.00,,,0.00,WUHU216WMR968SP,2013-08-07 22:59:00,
2013-08-07 19:04:00,77.2,75.2,29.94,NNW,339,0.0,0.0,95,0.00,,,0.00,WUHU216WMR968SP,2013-08-07 23:04:00,
2013-08-07 19:09:00,77.2,75.2,29.94,NNW,339,0.0,0.0,95,0.00,,,0.00,WUHU216WMR968SP,2013-08-07 23:09:00,
2013-08-07 19:14:00,77.2,75.2,29.94,NNW,339,0.0,0.0,95,0.00,,,0.00,WUHU216WMR968SP,2013-08-07 23:14:00,
2013-08-07 19:19:00,77.2,75.2,29.94,NNW,339,0.0,0.0,95,0.00,,,0.00,WUHU216WMR968SP,2013-08-07 23:19:00,
2013-08-07 19:24:00,77.2,75.2,29.94,NNW,339,0.0,0.0,95,0.00,,,0.00,WUHU216WMR968SP,2013-08-07 23:24:00,
2013-08-07 19:29:00,77.2,75.2,29.94,NNW,339,0.0,0.0,96,0.00,,,0.00,WUHU216WMR968SP,2013-08-07 23:29:00,
2013-08-07 19:34:00,77.0,75.2,29.94,NNW,339,0.0,0.0,96,0.00,,,0.00,WUHU216WMR968SP,2013-08-07 23:34:00,
2013-08-07 19:39:00,76.8,75.2,29.94,NNW,339,0.0,0.0,96,0.00,,,0.00,WUHU216WMR968SP,2013-08-07 23:39:00,
2013-08-07 19:44:00,76.6,75.2,29.94,NNW,339,0.0,0.0,96,0.00,,,0.00,WUHU216WMR968SP,2013-08-07 23:44:00,
2013-08-07 19:49:00,76.5,75.2,29.94,NNW,339,0.0,0.0,96,0.00,,,0.00,WUHU216WMR968SP,2013-08-07 23:49:00,
2013-08-07 19:54:00,76.5,75.2,29.94,NNW,339,0.0,0.0,97,0.00,,,0.00,WUHU216WMR968SP,2013-08-07 23:54:00,
2013-08-07 19:59:00,76.3,75.2,29.94,NNW,339,0.0,0.0,97,0.00,,,0.00,WUHU216WMR968SP,2013-08-07 23:59:00,
2013-08-07 20:04:00,76.3,75.2,29.94,NNW,339,0.0,0.0,97,0.00,,,0.00,WUHU216WMR968SP,2013-08-08 00:04:00,
2013-08-07 20:09:00,76.1,75.2,29.94,NNW,339,0.0,0.0,97,0.00,,,0.00,WUHU216WMR968SP,2013-08-08 00:09:00,
2013-08-07 20:14:00,76.1,75.2,29.94,NNW,339,0.0,0.0,97,0.00,,,0.00,WUHU216WMR968SP,2013-08-08 00:14:00,
2013-08-07 20:19:00,75.9,73.4,29.94,NNW,339,0.0,0.0,97,0.00,,,0.00,WUHU216WMR968SP,2013-08-08 00:19:00,
2013-08-07 20:24:00,75.7,73.4,29.97,NNW,339,0.0,0.0,97,0.00,,,0.00,WUHU216WMR968SP,2013-08-08 00:24:00,
2013-08-07 20:29:00,75.6,73.4,29.97,NNW,339,0.0,0.0,97,0.00,,,0.00,WUHU216WMR968SP,2013-08-08 00:29:00,
2013-08-07 20:34:00,75.6,75.2,29.97,NNW,339,0.0,0.0,98,0.00,,,0.00,WUHU216WMR968SP,2013-08-08 00:34:00,
2013-08-07 20:39:00,75.2,75.2,29.97,SSW,196,0.0,4.1,98,0.00,,,0.00,WUHU216WMR968SP,2013-08-08 00:39:00,
2013-08-07 20:45:00,75.0,75.2,29.97,SSE,148,0.0,4.1,98,0.00,,,0.00,WUHU216WMR968SP,2013-08-08 00:45:00,
2013-08-07 20:50:00,74.7,73.4,29.97,NE,50,0.0,3.3,97,0.00,,,0.00,WUHU216WMR968SP,2013-08-08 00:50:00,
2013-08-07 20:55:00,74.5,73.4,29.97,NE,50,0.0,3.3,96,0.00,,,0.00,WUHU216WMR968SP,2013-08-08 00:55:00,
2013-08-07 21:00:00,74.1,71.6,29.97,SW,221,0.0,0.0,96,0.00,,,0.00,WUHU216WMR968SP,2013-08-08 01:00:00,
2013-08-07 21:05:00,73.9,71.6,29.97,SW,221,0.0,0.0,95,0.00,,,0.00,WUHU216WMR968SP,2013-08-08 01:05:00,
2013-08-07 21:10:00,73.8,71.6,29.97,SW,221,0.0,0.0,95,0.00,,,0.00,WUHU216WMR968SP,2013-08-08 01:10:00,
2013-08-07 21:15:00,73.6,71.6,29.97,SW,221,0.0,0.0,94,0.00,,,0.00,WUHU216WMR968SP,2013-08-08 01:15:00,
2013-08-07 21:20:00,73.4,71.6,29.97,SW,221,0.0,0.0,94,0.00,,,0.00,WUHU216WMR968SP,2013-08-08 01:20:00,
2013-08-07 21:25:00,73.0,71.6,29.97,SW,221,0.0,0.0,94,0.00,,,0.00,WUHU216WMR968SP,2013-08-08 01:25:00,
2013-08-07 21:30:00,73.0,71.6,29.97,SW,221,0.0,0.0,94,0.00,,,0.00,WUHU216WMR968SP,2013-08-08 01:30:00,
2013-08-07 21:35:00,72.9,71.6,29.97,SW,220,0.0,0.0,95,0.00,,,0.00,WUHU216WMR968SP,2013-08-08 01:35:00,
2013-08-07 21:40:00,72.7,71.6,30.00,SW,220,0.0,0.0,95,0.00,,,0.00,WUHU216WMR968SP,2013-08-08 01:40:00,
2013-08-07 21:45:00,72.7,71.6,30.00,SW,220,0.0,0.0,95,0.00,,,0.00,WUHU216WMR968SP,2013-08-08 01:45:00,
2013-08-07 21:50:00,72.5,71.6,30.00,SW,220,0.0,0.0,95,0.00,,,0.00,WUHU216WMR968SP,2013-08-08 01:50:00,
2013-08-07 21:55:00,72.5,71.6,30.00,SW,223,0.0,0.0,95,0.00,,,0.00,WUHU216WMR968SP,2013-08-08 01:55:00,
2013-08-07 22:00:00,72.5,71.6,30.00,WNW,283,0.0,0.0,95,0.00,,,0.00,WUHU216WMR968SP,2013-08-08 02:00:00,
2013-08-07 22:05:00,72.3,69.8,30.00,WNW,283,0.0,0.0,95,0.00,,,0.00,WUHU216WMR968SP,2013-08-08 02:05:00,
2013-08-07 22:10:00,72.1,69.8,30.00,WNW,283,0.0,0.0,96,0.00,,,0.00,WUHU216WMR968SP,2013-08-08 02:10:00,
2013-08-07 22:15:00,72.1,69.8,30.00,WSW,248,0.0,0.0,95,0.00,,,0.00,WUHU216WMR968SP,2013-08-08 02:15:00,
2013-08-07 22:20:00,72.1,69.8,30.00,WSW,248,0.0,0.0,95,0.00,,,0.00,WUHU216WMR968SP,2013-08-08 02:20:00,
2013-08-07 22:25:00,72.1,69.8,30.00,WSW,248,0.0,0.0,95,0.00,,,0.00,WUHU216WMR968SP,2013-08-08 02:25:00,
2013-08-07 22:30:00,72.0,69.8,30.00,WSW,248,0.0,0.0,96,0.00,,,0.00,WUHU216WMR968SP,2013-08-08 02:30:00,
2013-08-07 22:35:00,72.0,69.8,30.00,WSW,248,0.0,0.0,96,0.00,,,0.00,WUHU216WMR968SP,2013-08-08 02:35:00,
2013-08-07 22:40:00,72.0,69.8,30.00,WSW,248,0.0,0.0,96,0.00,,,0.00,WUHU216WMR968SP,2013-08-08 02:40:00,
2013-08-07 22:45:00,72.0,69.8,30.00,WSW,248,0.0,0.0,96,0.00,,,0.00,WUHU216WMR968SP,2013-08-08 02:45:00,
2013-08-07 22:50:00,72.0,69.8,30.00,WSW,248,0.0,0.0,96,0.00,,,0.00,WUHU216WMR968SP,2013-08-08 02:50:00,
2013-08-07 22:55:00,72.0,69.8,30.00,SSW,197,0.0,0.0,96,0.00,,,0.00,WUHU216WMR968SP,2013-08-08 02:55:00,
2013-08-07 23:01:00,72.0,69.8,30.00,SSW,197,0.0,0.0,96,0.00,,,0.00,WUHU216WMR968SP,2013-08-08 03:01:00,
2013-08-07 23:06:00,72.0,69.8,30.00,SSW,197,0.0,0.0,96,0.00,,,0.00,WUHU216WMR968SP,2013-08-08 03:06:00,
2013-08-07 23:11:00,72.0,69.8,30.03,SSW,197,0.0,0.0,96,0.00,,,0.00,WUHU216WMR968SP,2013-08-08 03:11:00,
2013-08-07 23:16:00,72.0,69.8,30.03,SSW,197,0.0,0.0,96,0.00,,,0.00,WUHU216WMR968SP,2013-08-08 03:16:00,
2013-08-07 23:21:00,72.0,69.8,30.03,SSW,197,0.0,0.0,96,0.00,,,0.00,WUHU216WMR968SP,2013-08-08 03:21:00,
2013-08-07 23:26:00,72.0,71.6,30.00,SSW,197,0.0,0.0,97,0.00,,,0.00,WUHU216WMR968SP,2013-08-08 03:26:00,
2013-08-07 23:31:00,71.8,71.6,30.00,SSW,197,0.0,0.0,97,0.00,,,0.00,WUHU216WMR968SP,2013-08-08 03:31:00,
2013-08-07 23:36:00,71.8,71.6,30.00,SSW,197,0.0,0.0,97,0.00,,,0.00,WUHU216WMR968SP,2013-08-08 03:36:00,
2013-08-07 23:41:00,71.8,71.6,30.00,SSW,197,0.0,0.0,97,0.00,,,0.00,WUHU216WMR968SP,2013-08-08 03:41:00,
2013-08-07 23:46:00,71.8,71.6,30.00,SSW,197,0.0,0.0,97,0.00,,,0.00,WUHU216WMR968SP,2013-08-08 03:46:00,
2013-08-07 23:51:00,71.8,71.6,30.00,SSW,197,0.0,0.0,97,0.00,,,0.00,WUHU216WMR968SP,2013-08-08 03:51:00,
2013-08-07 23:56:00,71.8,71.6,30.00,SSW,197,0.0,0.0,97,0.00,,,0.00,WUHU216WMR968SP,2013-08-08 03:56:00,